Location: Axtheid
(49.6213°N, 11.8205°E)
Time: 23:18:10
(UTC+00:00)

Envisat - Pass Details

Date: 27 January 2022
Orbit: 764 x 765 km, 98.2° (Epoch: 22 May)

Event Time Altitude Azimuth Distance (km) Brightness Sun altitude
Rises 03:38:55 0° 19° (NNE) 3,243 6.6 -31.1°
Reaches altitude 10° 03:41:21 10° 26° (NNE) 2,312 5.8 -30.7°
Maximum altitude 03:46:12 43° 98° (E) 1,073 4.1 -29.9°
Drops below altitude 10° 03:51:00 10° 169° (S) 2,297 5.5 -29.2°
Sets 03:53:24 0° 176° (S) 3,218 6.2 -28.8°
